Regional Weather Roundup
Issued by NWS Boston, MA

Home | Current Version | Previous Version | Text Only | Print | Product List | Glossary On
Versions: 1 2 3 4 5 6 7 8 9 10 11 12 13 14 15 16 17 18 19 20 21 22 23 24 25 26 27 28 29 30 31 32 33 34 35 36 37 38 39 40 41 42 43 44 45 46 47 48 49 50
000
ASUS41 KBOX 251010
RWRBOX

REGIONAL WEATHER ROUNDUP
NATIONAL WEATHER SERVICE TAUNTON MA
500 AM EST SUN JAN 25 2015

NOTE:  "FAIR" INDICATES FEW OR NO CLOUDS BELOW 12,000 FEET WITH NO
SIGNIFICANT WEATHER AND/OR OBSTRUCTIONS TO VISIBILITY.  THE FOLLOWING
OBSERVATION LOCATIONS DO NOT REPORT PRESENT WEATHER...PROVINCETOWN...
SMITHFIELD...BLOCK ISLAND...KEENE...AND OXFORD.

MAZALL-251100-
EASTERN MASSACHUSETTS

CITY           SKY/WX    TMP DP  RH WIND       PRES   REMARKS
BOSTON         MOCLDY    32  26  78 W13G23    29.44R WCI  22
BEVERLY        MOCLDY    30  25  81 W10       29.41R WCI  21
LAWRENCE       MOCLDY    29  25  85 SW12      29.42R WCI  19
BEDFORD        MOCLDY    29  26  89 SW7       29.42R WCI  22
BLUE HILL        N/A     28  26  92 W17G26    29.40R WCI  16
NORWOOD        MOCLDY    31  27  85 W12       29.45R WCI  22
MARSHFIELD       N/A    N/A N/A N/A MISG        N/A
PLYMOUTH       CLOUDY    31  27  85 W10       29.45R WCI  22
TAUNTON        CLOUDY    32  27  81 W7        29.46R WCI  26
NEW BEDFORD    CLOUDY    33  28  81 W12G24    29.46R WCI  24
$$

MAZALL-251100-
CAPE COD AND THE ISLANDS

CITY           SKY/WX    TMP DP  RH WIND       PRES   REMARKS
FALMOUTH       CLOUDY    32  28  86 W12       29.47R WCI  23
HYANNIS        CLOUDY    32  27  81 W10       29.44R WCI  24
CHATHAM        MOCLDY    30  27  88 VRB5      29.47R WCI  25
PROVINCETOWN   CLOUDY    34  27  75 W17G25    29.44R WCI  23
NANTUCKET      CLOUDY    34  27  75 W16G24    29.48R WCI  24
MARTHAS VNYRD  CLOUDY    33  26  75 W12G18    29.48R WCI  24
$$

MAZALL-251100-
CENTRAL AND WESTERN MASSACHUSETTS

CITY           SKY/WX    TMP DP  RH WIND       PRES   REMARKS
WORCESTER      MOCLDY    28  25  88 W16       29.43R WCI  16
FITCHBURG      CLOUDY    33  25  72 SW6       29.44R WCI  28
ORANGE         CLOUDY    31  26  82 SW6       29.44R WCI  25
SPRINGFIELD    CLOUDY    31  26  79 SW12      29.47R WCI  22
WESTFIELD      CLOUDY    32  25  75 S8        29.48R WCI  25
NORTH ADAMS    CLOUDY    33  26  75 W13G23    29.44R WCI  24
PITTSFIELD     FLURRIES  30  25  81 W18G25    29.42R WCI  18
$$

RIZALL-251100-
RHODE ISLAND

CITY           SKY/WX    TMP DP  RH WIND       PRES   REMARKS
PROVIDENCE     MOCLDY    32  25  75 W16       29.48R WCI  21
NEWPORT        CLOUDY    33  25  72 W7        29.48R WCI  27
BLOCK ISLAND   CLOUDY    36  25  64 W12G24    29.51R WCI  27
SMITHFIELD     PTCLDY    30  21  69 W13       29.45R WCI  20
WESTERLY       CLOUDY    32  25  75 W5        29.52R WCI  27
$$

CTZALL-251100-
CONNECTICUT

CITY           SKY/WX    TMP DP  RH WIND       PRES   REMARKS
BRADLEY INTL   CLOUDY    32  24  72 SW9       29.51R WCI  24
HARTFORD       MOCLDY    28  25  88 CALM      29.53R
BRIDGEPORT     PTCLDY    34  27  75 SW8       29.56R WCI  27
DANBURY        PTCLDY    32  23  69 W9        29.54S WCI  24
GROTON         CLOUDY    31  25  78 W8        29.52R WCI  23
NEW HAVEN      PTCLDY    35  26  69 W6        29.54R WCI  30
CHESTER        FAIR      32  27  80 W5        29.53R WCI  27
MERIDEN        PTCLDY    32  24  72 VRB3      29.53R
WILLIMANTIC    CLEAR     30  23  75 VRB5      29.51R WCI  25
OXFORD         PTCLDY    30  21  69 W5        29.51R WCI  25
$$

MEZ002-015-021-024-NHZ003-005-008-011-012-014-VTZ005-008-251100-
NORTHERN NEW ENGLAND

CITY           SKY/WX    TMP DP  RH WIND       PRES   REMARKS
PORTLAND ME    CLOUDY    34  25  69 W13       29.32R WCI  25
BANGOR ME      PTCLDY    30  24  78 W9        29.22R WCI  22
CONCORD NH     CLOUDY    31  23  72 SW7       29.38R WCI  24
MANCHESTER NH  MOCLDY    30  24  78 SW6       29.39R WCI  24
NASHUA NH        N/A     31  26  81 W10       29.42R WCI  22
PORTSMOUTH NH  MOCLDY    30  24  77 W8        29.37R WCI  23
JAFFREY NH     CLOUDY    29  24  82 SW7       29.39R WCI  22
KEENE NH       CLOUDY    32  27  80 S9        29.41R WCI  24
BURLINGTON VT  LGT SNOW  32  26  78 NW15      29.40R WCI  22
MT. WASHINGTON SNOWSHWR   7   7 100 NW81G86     N/A  VSB 0   WCI -26
$$

NYZ052-076-251100-
EASTERN NEW YORK

CITY           SKY/WX    TMP DP  RH WIND       PRES   REMARKS
ALBANY         FLURRIES  34  27  75 S6        29.49R WCI  29
NEW YORK CITY  PTCLDY    35  25  66 W16G22    29.60R WCI  25
$$

ANZALL-251100-
MARINE OBSERVATIONS

STATION/POSITION TIME  TEMP    WIND        PRES    VSBY  WAVE
                       AIR SEA DIR/SP/G                  HT/PER
                 (UTC) (F)     (DEG/KT/KT) (MB)    (MI)  (FT/S)
BOSTON BUOY      0950   34 40  260/ 21/ 25  995.5R         5/ 8
BUZZARDS BAY     0900          280/ 21/ 24  998.5R
NANTUCKET SOUND  0950   35 37  270/ 19/ 25  997.3R         3/ 5
MASS BAY-STELLWA 0904   34 42  260/ 21/ 29   N/A    1 7/8  3/ 4
ISLE OF SHOALS   1000   34     270/ 25/ 29  993.7R
S OF BLOCK IS    0908      45                N/A          11/13
$$

......................KEY.........................
  SKY/WX - SKY CONDITION/PRESENT WEATHER
  TMP    - TEMPERATURE IN FAHRENHEIT
  DWPT   - DEWPOINT IN FAHRENHEIT
  RH     - RELATIVE HUMIDITY IN PERCENT
  WIND   - DIRECTION AND SPEED IN MPH
  PRES   - MEAN SEA LEVEL PRESSURE IN INCHES OF HG
  WCI    - WIND CHILL INDEX
  VSB    - VISIBILITY IN MILES
  HX     - HEAT INDEX
  TC     - TEMPERATURE IN CELSIUS
  VRB    - VARIABLE WIND DIRECTION
  N/A    - NOT AVAILABLE



USA.gov is the U.S. government's official web portal to all federal, state and local government web resources and services.